N4JAH Weather Reports


time (UTC)temp
F
wind
direction
speed
knots
gust
knots
rain 1hr
in
rain 24hr
in
rain mn
in
humidity
%
barometer
mb
20260906103022 70 235 0.0 0.0 0.00 0.00 0.00 95 1010.2
20260906101530 71 235 0.0 0.0 0.00 0.00 0.00 95 1010.1
20260906100014 70 235 0.0 0.0 0.00 0.00 0.00 95 1010.2
20260906094518 70 235 0.0 0.0 0.00 0.00 0.00 94 1010.2
20260906093034 70 235 0.0 0.0 0.00 0.00 0.00 94 1010.2
20260906091526 70 235 0.0 0.0 0.00 0.00 0.00 94 1010.4
20260906090034 70 235 0.0 0.0 0.00 0.00 0.00 94 1010.3
20260906084517 70 235 0.0 0.0 0.00 0.00 0.00 94 1010.3
20260906083028 70 235 0.0 0.0 0.00 0.00 0.00 94 1010.2
20260906081526 70 235 0.0 0.0 0.00 0.00 0.00 94 1010.0
20260906080013 70 235 0.0 0.0 0.00 0.00 0.00 93 1009.8
20260906074517 70 235 0.0 0.0 0.00 0.00 0.00 93 1010.0
20260906073022 71 235 0.0 0.0 0.00 0.00 0.00 93 1010.1
20260906071526 71 235 0.0 0.0 0.00 0.00 0.00 93 1010.2
20260906070014 71 235 0.0 0.0 0.00 0.00 0.00 93 1010.3
20260906064517 71 235 0.0 0.0 0.00 0.00 0.00 92 1010.3
20260906063036 71 235 0.0 0.0 0.00 0.00 0.00 92 1010.6
20260906061521 71 235 0.0 0.0 0.00 0.00 0.00 92 1010.9
20260906060001 71 235 0.0 0.0 0.00 0.00 0.00 92 1010.9
20260906054506 72 235 0.0 0.0 0.00 0.00 0.00 92 1010.9
20260906053012 72 235 0.0 0.0 0.00 0.00 0.00 92 1011.1
20260906051529 72 235 0.0 0.0 0.00 0.00 0.00 92 1011.1
20260906050003 72 235 0.0 0.0 0.00 0.00 0.00 92 1011.3
20260906044503 72 235 0.0 0.0 0.00 0.00 0.00 91 1011.2
20260906043009 72 235 0.0 0.0 0.00 0.00 0.00 91 1011.2
20260906041513 73 235 0.0 0.0 0.00 0.00 0.00 90 1011.1
20260906040104 73 235 0.0 0.0 0.00 0.00 0.00 90 1011.0
20260906034505 73 235 0.0 0.0 0.00 0.00 0.00 89 1011.1
20260906033011 74 235 0.0 0.0 0.00 0.00 0.00 89 1011.2
20260906031515 74 235 0.0 0.0 0.00 0.00 0.00 88 1011.2
20260906030001 75 235 0.0 0.0 0.00 0.00 0.00 88 1011.5
20260906024505 75 235 0.0 0.0 0.00 0.00 0.00 87 1011.8
20260906023009 75 235 0.0 0.0 0.00 0.00 0.00 86 1011.9
20260906021511 75 235 0.0 0.0 0.00 0.00 0.00 86 1012.0
20260906020107 76 235 0.0 0.0 0.00 0.00 0.00 85 1011.6
20260906014503 76 235 0.0 0.0 0.00 0.00 0.00 84 1011.4
20260906013012 76 235 0.0 0.0 0.00 0.00 0.00 84 1011.3
20260906011513 77 235 0.0 0.0 0.00 0.00 0.00 82 1010.9
20260906010104 77 235 0.0 0.0 0.00 0.00 0.00 82 1010.9
20260906004503 77 235 0.0 0.0 0.00 0.00 0.00 81 1011.1
20260906003009 78 235 0.0 0.0 0.00 0.00 0.00 80 1011.1
20260906001512 78 235 0.0 0.0 0.00 0.00 0.00 80 1010.6
20260906000111 78 235 0.0 0.0 0.00 0.00 0.00 80 1010.1
20260905234507 79 235 0.0 0.0 0.00 0.00 0.00 79 1010.0
20260905233006 79 235 0.0 0.0 0.00 0.00 0.00 78 1010.0
20260905231521 79 235 0.0 0.0 0.00 0.00 0.00 78 1010.0
20260905230103 79 235 0.0 0.0 0.00 0.00 0.00 77 1009.7
20260905224614 79 235 0.0 0.0 0.00 0.00 0.00 77 1009.7
20260905223001 80 235 0.0 0.0 0.00 0.00 0.00 76 1009.8
20260905221507 81 237 0.0 0.0 0.00 0.00 0.00 73 1010.1
20260905214554 86 236 0.0 0.0 0.00 0.00 0.00 65 1009.7
20260905213100 89 236 0.0 2.6 0.00 0.00 0.00 59 1010.0
20260905211502 94 163 0.0 1.7 0.00 0.00 0.00 54 1009.6
20260905210058 96 344 0.0 0.0 0.00 0.00 0.00 56 1008.7
20260905204555 98 344 0.0 0.0 0.00 0.00 0.00 52 1008.9
20260905203108 99 340 0.0 3.5 0.00 0.00 0.00 48 1008.9
20260905201600 99 5 0.0 2.6 0.00 0.00 0.00 48 1009.0
20260905200049 98 5 0.0 3.5 0.00 0.00 0.00 49 1009.2
20260905194552 98 227 0.0 1.7 0.00 0.00 0.00 48 1009.3
20260905193058 98 341 0.0 1.7 0.00 0.00 0.00 50 1009.3
20260905191611 97 344 0.0 2.6 0.00 0.00 0.00 51 1009.5
20260905190050 97 238 0.0 0.9 0.00 0.00 0.00 52 1009.8
20260905184554 96 328 0.0 3.5 0.00 0.00 0.00 52 1010.0
20260905183057 96 174 0.0 2.6 0.00 0.00 0.00 52 1010.1
20260905181606 96 169 0.0 2.6 0.00 0.00 0.00 52 1010.5
20260905180051 96 165 0.0 3.5 0.00 0.00 0.00 54 1010.6
20260905174555 96 5 0.0 3.5 0.00 0.00 0.00 54 1010.6
20260905173058 96 215 0.0 2.6 0.00 0.00 0.00 54 1011.0
20260905171635 95 339 0.0 2.6 0.00 0.00 0.00 54 1011.1
20260905170101 96 222 0.0 1.7 0.00 0.00 0.00 54 1011.5
20260905164552 95 345 0.0 2.6 0.00 0.00 0.00 54 1011.8
20260905163057 95 226 0.0 1.7 0.00 0.00 0.00 55 1012.0
20260905161600 94 17 0.0 2.6 0.00 0.00 0.00 58 1012.1
20260905160045 93 22 0.0 0.9 0.00 0.00 0.00 62 1012.3
20260905154615 92 26 0.0 2.6 0.00 0.00 0.00 61 1012.5
20260905153052 92 340 0.9 4.3 0.00 0.00 0.00 61 1012.6
20260905151557 91 348 0.0 3.5 0.00 0.00 0.00 63 1012.9
20260905150046 90 348 0.0 2.6 0.00 0.00 0.00 67 1012.9
20260905144546 89 360 0.0 0.0 0.00 0.00 0.00 70 1012.9
20260905143049 87 331 0.0 2.6 0.00 0.00 0.00 74 1013.1
20260905141550 85 355 0.0 2.6 0.00 0.00 0.00 76 1013.1
20260905140036 84 355 0.0 1.7 0.00 0.00 0.00 82 1013.1
20260905134539 83 355 0.0 0.0 0.00 0.00 0.00 84 1013.4
20260905133043 80 355 0.0 2.6 0.00 0.00 0.00 88 1013.4
20260905131546 79 215 0.0 0.9 0.00 0.00 0.00 91 1013.4
20260905130034 77 215 0.0 0.9 0.00 0.00 0.00 94 1013.6
20260905124538 75 215 0.0 0.0 0.00 0.00 0.00 96 1013.6
20260905123042 73 215 0.0 0.0 0.00 0.00 0.00 96 1013.5
20260905121547 72 215 0.0 0.0 0.00 0.00 0.00 96 1013.5
20260905120039 71 215 0.0 0.0 0.00 0.00 0.00 96 1013.3
20260905114538 70 215 0.0 0.0 0.00 0.00 0.00 95 1013.3
20260905113044 70 215 0.0 0.0 0.00 0.00 0.00 95 1013.1
20260905111620 70 215 0.0 0.0 0.00 0.00 0.00 95 1012.9
20260905110034 70 215 0.0 0.0 0.00 0.00 0.00 95 1012.8
20260905104604 71 215 0.0 0.0 0.00 0.00 0.00 95 1012.8